Change the Weather History Date:

Friday, September 20, 2013

  Actual Average Record
Temperature  
Mean Temperature 73 °F 69 °F  
Max Temperature 80 °F 78 °F 94 °F (1925)
Min Temperature 65 °F 59 °F 39 °F (1929)
Degree Days  
Heating Degree Days 0 1  
Month to date heating degree days 2 8  
Since 1 July heating degree days 4 9  
Cooling Degree Days 8 5  
Month to date cooling degree days 161 148  
Year to date cooling degree days 1320 1410  
Growing Degree Days 22 (Base 50)    
Moisture  
Dew Point 64 °F    
Average Humidity 81    
Maximum Humidity 93    
Minimum Humidity 69    
Precipitation  
Precipitation T in 0.14 in 1.30 in (1969)
Month to date precipitation 1.42 2.98  
Year to date precipitation 39.81 31.77  
Sea Level Pressure  
Sea Level Pressure 30.02 in    
Wind  
Wind Speed 5 mph (ESE)    
Max Wind Speed 13 mph    
Max Gust Speed 32 mph    
Visibility 9 miles    
Events      
T = Trace of Precipitation, MM = Missing Value Source: NWS Daily Summary

Daily Weather History Graph

Daily Weather History Graph

Search for Another Location

Airport or City:

Trip Planner

Search our weather history database for the weather conditions in past years. The results will help you decide how hot, cold, wet, or windy it might be!

Date:

Astronomy

Sep. 20, 2013 Rise Set
Actual Time 7:06 AM EDT 7:19 PM EDT
Civil Twilight 6:40 AM EDT 7:44 PM EDT
Nautical Twilight 6:10 AM EDT 8:14 PM EDT
Astronomical Twilight 5:40 AM EDT 8:45 PM EDT
Moon 7:56 PM EDT (9/20) 8:15 AM EDT (9/20)
Length of Visible Light 13h 04m
Length of Day
12h 12m
Full, 98% of the Moon is Illuminated
Sep 20
Full
Sep 26
Last Quarter
Oct 4
New
Oct 11
First Quarter
Oct 18
Full

Hourly Weather History & Observations

Time (EDT) Temp. Dew Point Humidity Pressure Visibility Wind Dir Wind Speed Gust Speed Precip Events Conditions
12:54 AM 68.0 °F 62.1 °F 81% 30.08 in 10.0 mi Calm Calm - N/A   Overcast
1:54 AM 66.9 °F 62.1 °F 84% 30.08 in 10.0 mi Calm Calm - N/A   Overcast
2:54 AM 66.9 °F 61.0 °F 81% 30.06 in 10.0 mi Calm Calm - N/A   Overcast
3:54 AM 66.0 °F 62.1 °F 87% 30.06 in 10.0 mi Calm Calm - N/A   Mostly Cloudy
4:54 AM 66.0 °F 62.1 °F 87% 30.05 in 10.0 mi SW 3.5 mph - N/A   Overcast
5:54 AM 66.0 °F 61.0 °F 84% 30.05 in 10.0 mi Calm Calm - N/A   Overcast
6:54 AM 66.0 °F 61.0 °F 84% 30.06 in 10.0 mi Calm Calm - N/A   Overcast
7:54 AM 64.9 °F 61.0 °F 87% 30.06 in 10.0 mi SSW 3.5 mph - N/A   Mostly Cloudy
8:54 AM 68.0 °F 62.1 °F 81% 30.06 in 10.0 mi SSW 3.5 mph - N/A   Overcast
9:54 AM 70.0 °F 61.0 °F 73% 30.05 in 10.0 mi SW 4.6 mph - N/A   Overcast
10:54 AM 70.0 °F 62.1 °F 76% 30.06 in 10.0 mi Calm Calm - N/A   Overcast
11:54 AM 72.0 °F 62.1 °F 71% 30.04 in 10.0 mi Calm Calm - N/A   Mostly Cloudy
12:54 PM 73.0 °F 64.0 °F 73% 30.03 in 9.0 mi East 5.8 mph - N/A   Overcast
1:54 PM 75.9 °F 66.0 °F 71% 30.00 in 10.0 mi SSE 8.1 mph - N/A   Mostly Cloudy
2:54 PM 77.0 °F 66.0 °F 69% 29.98 in 10.0 mi SE 10.4 mph - N/A   Mostly Cloudy
3:54 PM 77.0 °F 66.0 °F 69% 29.97 in 10.0 mi East 5.8 mph - N/A   Overcast
4:54 PM 75.0 °F 66.0 °F 73% 29.95 in 10.0 mi East 8.1 mph - 0.00 in   Overcast
5:54 PM 73.0 °F 66.0 °F 79% 29.96 in 10.0 mi East 9.2 mph - N/A   Mostly Cloudy
6:03 PM 73.4 °F 66.2 °F 78% 29.99 in 10.0 mi East 9.2 mph - N/A   Overcast
6:34 PM 71.6 °F 66.2 °F 83% 29.99 in 8.0 mi East 9.2 mph - N/A   Overcast
6:54 PM 71.1 °F 66.0 °F 84% 29.97 in 8.0 mi East 8.1 mph - N/A   Overcast
7:20 PM 69.8 °F 66.2 °F 88% 29.99 in 7.0 mi East 9.2 mph - N/A   Overcast
7:54 PM 69.1 °F 64.9 °F 87% 29.98 in 7.0 mi ESE 8.1 mph - N/A   Overcast
8:54 PM 68.0 °F 64.9 °F 90% 29.99 in 6.0 mi ESE 6.9 mph - N/A   Overcast
9:54 PM 68.0 °F 64.9 °F 90% 29.98 in 5.0 mi ESE 5.8 mph - N/A   Overcast
10:54 PM 66.9 °F 64.9 °F 93% 29.96 in 5.0 mi ESE 8.1 mph - N/A   Overcast
11:54 PM 66.9 °F 64.9 °F 93% 29.96 in 6.0 mi SE 5.8 mph - 0.00 in   Overcast